User: anonymous   Login
Location: Ash Swamp
(41.5170°N, 74.6157°W)
Time: 17:41:30
(UTC+00:00)
Language:

Meteor 2-4 Rocket - Orbit

View from above orbital plane
View from above orbital plane
View from above satellite
View from above satellite

Ground track
Ground track

The orbit data is extracted from the following two-line orbital elements,

1 11289U 79021B   20271.05245377  .00000075  00000-0  33077-4 0  9991
2 11289  81.2448  75.4651 0076753  74.6431 286.3205 14.11609866139833
Epoch (UTC): 27 September 2020 01:15:32
Eccentricity: 0.0076753
inclination: 81.2448°
perigee height: 798 km
apogee height: 909 km
right ascension of ascending node: 75.4651°
argument of perigee: 74.6431°
revolutions per day: 14.11609866
mean anomaly at epoch: 286.3205°
orbit number at epoch: 13983

The dashed part of the orbit path shows where the satellite is in the earth's shadow,  

DLR